Location: Fernhill
(41.0167°S, 175.6333°E)
Time: 03:00:49
(UTC+00:00)

NOAA 6 - Pass Details

Date: 08 November 2025
Orbit: 766 x 782 km, 98.6° (Epoch: 15 December)

Event Time Altitude Azimuth Distance (km) Brightness Sun altitude
Rises 07:35:34 0° 162° (SSE) 3,293 7.4 -5.8°
Reaches altitude 10° 07:37:58 10° 156° (SSE) 2,360 6.6 -6.2°
Maximum altitude 07:43:02 52° 80° (E) 980 4.2 -7.0°
Drops below altitude 10° 07:48:04 10° 4° (N) 2,337 6.2 -7.8°
Sets 07:50:26 0° 358° (N) 3,258 7.0 -8.2°
